Weather reports worldwide

Advertisment
Kyiv, Ukraine (33345): temperature & dewpoint: 17.07.2019 23:00:00 - 23.07.2019 23:00:00 (EEST)Kyiv, Ukraine (33345): wind speed: 17.07.2019 23:00:00 - 23.07.2019 23:00:00 (EEST)Kyiv, Ukraine (33345): wind direction: 17.07.2019 23:00:00 - 23.07.2019 23:00:00 (EEST)Kyiv, Ukraine (33345): reduced air pressure: 17.07.2019 23:00:00 - 23.07.2019 23:00:00 (EEST)Kyiv, Ukraine (33345): visibility: 17.07.2019 23:00:00 - 23.07.2019 23:00:00 (EEST)
Date & Time tt [°C] td [°C] ff [km/h] ff [kn] dd ppp [hPa] vv [km]
23.07.2019 23:00:00 - - - - - - -
23.07.2019 22:00:00 - - - - - - -
23.07.2019 21:00:00 20,6 10,1 14 8 N 1012,9 20
23.07.2019 20:00:00 - - - - - - -
23.07.2019 19:00:00 - - - - - - -
23.07.2019 18:00:00 24,5 9,6 11 6 NW 1011,6 20
23.07.2019 17:00:00 - - - - - - -
23.07.2019 16:00:00 - - - - - - -
23.07.2019 15:00:00 24,0 10,1 11 6 NW 1012,5 20
23.07.2019 14:00:00 - - - - - - -
23.07.2019 13:00:00 - - - - - - -
23.07.2019 12:00:00 21,8 11,2 14 8 NW 1013,5 20
23.07.2019 11:00:00 - - - - - - -
23.07.2019 10:00:00 - - - - - - -
23.07.2019 09:00:00 19,5 14,4 7 4 NW 1014,4 20
23.07.2019 08:00:00 - - - - - - -
23.07.2019 07:00:00 - - - - - - -
23.07.2019 06:00:00 16,8 14,0 7 4 NW 1014,8 10
23.07.2019 05:00:00 - - - - - - -
23.07.2019 04:00:00 - - - - - - -
23.07.2019 03:00:00 17,6 15,0 4 2 WNW 1015,3 10
23.07.2019 02:00:00 - - - - - - -
23.07.2019 01:00:00 - - - - - - -
23.07.2019 00:00:00 18,8 15,4 4 2 W 1016,1 10
22.07.2019 23:00:00 - - - - - - -
22.07.2019 22:00:00 - - - - - - -
22.07.2019 21:00:00 21,1 16,5 7 4 N 1016,0 20
22.07.2019 20:00:00 - - - - - - -
22.07.2019 19:00:00 - - - - - - -
22.07.2019 18:00:00 23,6 15,7 7 4 NNW 1015,0 20
22.07.2019 17:00:00 - - - - - - -
22.07.2019 16:00:00 - - - - - - -
22.07.2019 15:00:00 23,4 17,1 11 6 NW 1015,7 20
22.07.2019 14:00:00 - - - - - - -
22.07.2019 13:00:00 - - - - - - -
22.07.2019 12:00:00 20,6 18,2 7 4 WNW 1016,6 10
22.07.2019 11:00:00 - - - - - - -
22.07.2019 10:00:00 - - - - - - -
22.07.2019 09:00:00 25,2 18,5 0 0 N 1015,1 20
22.07.2019 08:00:00 - - - - - - -
22.07.2019 07:00:00 - - - - - - -
22.07.2019 06:00:00 17,8 14,3 0 0 N 1016,4 10
22.07.2019 05:00:00 - - - - - - -
22.07.2019 04:00:00 - - - - - - -
22.07.2019 03:00:00 19,1 15,2 0 0 N 1017,2 10
22.07.2019 02:00:00 - - - - - - -
22.07.2019 01:00:00 - - - - - - -
22.07.2019 00:00:00 20,5 15,5 4 2 S 1017,6 20
21.07.2019 23:00:00 - - - - - - -
21.07.2019 22:00:00 - - - - - - -
21.07.2019 21:00:00 21,2 16,6 0 0 N 1017,1 20
21.07.2019 20:00:00 - - - - - - -
21.07.2019 19:00:00 - - - - - - -
21.07.2019 18:00:00 21,7 18,2 4 2 WNW 1017,2 20
21.07.2019 17:00:00 - - - - - - -
21.07.2019 16:00:00 - - - - - - -
21.07.2019 15:00:00 27,7 13,6 4 2 SW 1017,4 20
21.07.2019 14:00:00 - - - - - - -
21.07.2019 13:00:00 - - - - - - -
21.07.2019 12:00:00 26,8 13,0 4 2 NW 1018,3 20
21.07.2019 11:00:00 - - - - - - -
21.07.2019 10:00:00 - - - - - - -
21.07.2019 09:00:00 22,4 16,1 0 0 N 1018,8 20
21.07.2019 08:00:00 - - - - - - -
21.07.2019 07:00:00 - - - - - - -
21.07.2019 06:00:00 18,9 12,9 7 4 NW 1019,1 20
21.07.2019 05:00:00 - - - - - - -
21.07.2019 04:00:00 - - - - - - -
21.07.2019 03:00:00 18,5 13,2 4 2 NW 1018,9 20
21.07.2019 02:00:00 - - - - - - -
21.07.2019 01:00:00 - - - - - - -
21.07.2019 00:00:00 19,9 12,6 0 0 N 1018,8 20
20.07.2019 23:00:00 - - - - - - -
20.07.2019 22:00:00 - - - - - - -
20.07.2019 21:00:00 22,8 11,6 7 4 N 1017,6 20
20.07.2019 20:00:00 - - - - - - -
20.07.2019 19:00:00 - - - - - - -
20.07.2019 18:00:00 28,0 7,9 7 4 WNW 1016,9 20
20.07.2019 17:00:00 - - - - - - -
20.07.2019 16:00:00 - - - - - - -
20.07.2019 15:00:00 26,9 8,6 7 4 N 1017,5 20
20.07.2019 14:00:00 - - - - - - -
20.07.2019 13:00:00 - - - - - - -
20.07.2019 12:00:00 27,0 9,0 7 4 W 1017,8 20
20.07.2019 11:00:00 - - - - - - -
20.07.2019 10:00:00 - - - - - - -
20.07.2019 09:00:00 22,2 12,1 7 4 W 1017,9 20
20.07.2019 08:00:00 - - - - - - -
20.07.2019 07:00:00 - - - - - - -
20.07.2019 06:00:00 17,4 10,3 4 2 NW 1017,5 20
20.07.2019 05:00:00 - - - - - - -
20.07.2019 04:00:00 - - - - - - -
20.07.2019 03:00:00 18,1 10,7 4 2 WNW 1016,9 20
20.07.2019 02:00:00 - - - - - - -
20.07.2019 01:00:00 - - - - - - -
20.07.2019 00:00:00 19,8 10,8 7 4 WNW 1016,4 20
19.07.2019 23:00:00 - - - - - - -
19.07.2019 22:00:00 - - - - - - -
19.07.2019 21:00:00 22,2 10,4 7 4 W 1015,0 20
19.07.2019 20:00:00 - - - - - - -
19.07.2019 19:00:00 - - - - - - -
19.07.2019 18:00:00 24,9 9,9 14 8 NW 1014,2 20
19.07.2019 17:00:00 - - - - - - -
19.07.2019 16:00:00 - - - - - - -
19.07.2019 15:00:00 24,8 10,0 11 6 W 1014,4 20
19.07.2019 14:00:00 - - - - - - -
19.07.2019 13:00:00 - - - - - - -
19.07.2019 12:00:00 23,0 11,2 11 6 NNW 1014,5 20
19.07.2019 11:00:00 - - - - - - -
19.07.2019 10:00:00 - - - - - - -
19.07.2019 09:00:00 18,4 12,5 7 4 NW 1014,8 20
19.07.2019 08:00:00 - - - - - - -
19.07.2019 07:00:00 - - - - - - -
19.07.2019 06:00:00 14,3 11,5 7 4 NW 1014,6 10
19.07.2019 05:00:00 - - - - - - -
19.07.2019 04:00:00 - - - - - - -
19.07.2019 03:00:00 15,1 12,0 7 4 WNW 1013,3 20
19.07.2019 02:00:00 - - - - - - -
19.07.2019 01:00:00 - - - - - - -
19.07.2019 00:00:00 16,6 11,9 7 4 WNW 1012,7 20
18.07.2019 23:00:00 - - - - - - -
18.07.2019 22:00:00 - - - - - - -
18.07.2019 21:00:00 19,2 10,8 11 6 W 1011,2 20
18.07.2019 20:00:00 - - - - - - -
18.07.2019 19:00:00 - - - - - - -
18.07.2019 18:00:00 20,7 10,0 11 6 WNW 1010,2 20
18.07.2019 17:00:00 - - - - - - -
18.07.2019 16:00:00 - - - - - - -
18.07.2019 15:00:00 20,4 10,3 7 4 NW 1009,7 20
18.07.2019 14:00:00 - - - - - - -
18.07.2019 13:00:00 - - - - - - -
18.07.2019 12:00:00 19,2 8,3 14 8 W 1009,5 20
18.07.2019 11:00:00 - - - - - - -
18.07.2019 10:00:00 - - - - - - -
18.07.2019 09:00:00 15,6 10,9 11 6 NNW 1009,4 20
18.07.2019 08:00:00 - - - - - - -
18.07.2019 07:00:00 - - - - - - -
18.07.2019 06:00:00 12,0 10,7 7 4 NW 1008,9 20
18.07.2019 05:00:00 - - - - - - -
18.07.2019 04:00:00 - - - - - - -
18.07.2019 03:00:00 12,8 11,5 7 4 NW 1008,3 10
18.07.2019 02:00:00 - - - - - - -
18.07.2019 01:00:00 - - - - - - -
18.07.2019 00:00:00 14,5 11,9 7 4 WNW 1008,0 20
17.07.2019 23:00:00 - - - - - - -

tt = temperature
td = dewpoint
ff = wind speed
dd = wind direction
ppp = reduced air pressure
vv = visibility

Next stations